[[{"header":{"parameterUnit":"m.s-1","parameterCategory":1,"la1":30.2991,"la2":30.254,"lo1":-89.0895,"lo2":-89.0444,"dy":0.0017,"dx":0.0017,"nx":28,"ny":28,"refTime":"2023-04-06T21:00:00:Z","depth":0,"parameterNumber":2,"parameterNumberName":"U-component_of_WINDS"},"data":[0,0,0,0,0,0,0,0,0,0,0,0,0,0,0,0,0,0,0,0,0,0,0,0,0,0,0,0,0,0,0,0,0,0,0,0,0,0,0,0,0,0,0,0,0,0,0,0,0,0,0,0,0,0,0,0,0,0,1.0728,1.0727,0,1.0676,1.0675,1.0675,1.0617,1.0616,1.0615,1.0614,1.0564,1.0564,1.0563,0,0,0,0,0,0,0,0,0,0,0,0,0,1.0779,1.0779,1.0728,1.0727,1.0726,1.0676,1.0675,1.0675,1.0617,1.0616,1.0615,1.0614,1.0564,1.0564,1.0563,0,0,0,0,0,0,0,0,0,0,0,0,0,1.0745,1.0778,1.0728,1.0691,1.0687,1.0676,1.0675,1.0674,1.0617,1.0616,1.0614,1.0613,1.0564,1.0564,1.0563,1.0584,0,0,1.056,1.056,0,0,0,0,0,0,0,0,1.0747,1.0743,1.0697,1.0694,1.0689,1.0651,1.0675,1.0644,1.0617,1.0644,1.0614,1.0612,1.0594,1.0591,1.0584,1.0582,1.058,1.056,1.056,1.056,1.0559,0,0,0,0,0,0,0,1.075,1.0745,1.0707,1.0697,1.0692,1.0679,1.0672,1.0669,1.0627,1.0641,1.0637,1.0632,1.0592,1.0585,1.0583,1.0579,1.056,1.056,1.0559,1.0559,1.0593,1.0594,0,0,0,0,0,0,1.0757,1.0748,1.0709,1.0706,1.0716,1.0679,1.0672,1.0665,1.0627,1.062,1.0633,1.0629,1.0587,1.0584,1.0581,1.0604,1.056,1.0559,1.0558,1.0591,1.0593,1.0594,0,0,0,0,0,0,1.0758,1.0754,1.0711,1.0725,1.0719,1.0679,1.0672,1.0665,1.0658,1.062,1.0613,1.0633,1.0586,1.0582,1.0584,1.0601,1.0559,1.0558,1.059,1.0592,1.0594,1.065,0,0,0,0,0,0,1.076,1.0755,1.0762,1.0726,1.0718,1.0714,1.0673,1.0665,1.0656,1.0651,1.0619,1.0612,1.0585,1.0585,1.0583,1.0599,1.0557,1.0588,1.0591,1.0593,1.0646,1.0653,1.066,0,0,0,0,0,1.0762,1.078,1.0762,1.0758,1.0726,1.0715,1.0711,1.0678,1.0658,1.0665,1.0641,1.0613,1.06,1.0586,1.0583,1.0599,1.0587,1.059,1.0593,1.0643,1.0652,1.066,0,0,0,0,0,0,1.082,1.0775,1.0755,1.0761,1.0742,1.0705,1.0713,1.0688,1.0675,1.0671,1.0631,1.0624,1.0632,1.0615,1.0601,1.0618,1.0589,1.0592,1.0629,1.0637,1.0643,1.0647,1.0557,0,0,0,0,0,1.0833,1.0827,1.0788,1.0798,1.079,1.0753,1.0747,1.0723,1.0703,1.0695,1.0671,1.0653,1.0644,1.0639,1.063,1.0644,1.0636,1.0653,1.066,1.0666,1.0669,1.0676,1.0683,1.0604,1.0604,1.0604,0,0,1.0861,1.0835,1.0834,1.0809,1.0792,1.0787,1.0747,1.0744,1.0741,1.0694,1.0695,1.0677,1.0654,1.0662,1.0665,1.0649,1.0689,1.067,1.0675,1.0674,1.068,1.0688,1.0694,1.0606,1.0606,1.0606,0,0,1.0909,1.0889,1.0895,1.0879,1.0852,1.0828,1.083,1.0797,1.0783,1.0782,1.0748,1.0744,1.073,1.0715,1.0706,1.075,1.0725,1.0748,1.0784,1.0791,1.0797,1.0803,1.0819,1.0826,1.0751,1.0751,1.0751,0,1.0947,1.0938,1.0902,1.0901,1.0892,1.0849,1.0855,1.0841,1.0814,1.0809,1.0792,1.0774,1.0755,1.076,1.0771,1.0765,1.0766,1.0752,1.0799,1.0804,1.0809,1.0824,1.083,1.0754,1.0754,1.0754,1.0753,0,1.0987,1.0981,1.099,1.0964,1.0955,1.0958,1.0923,1.0919,1.0896,1.0875,1.0876,1.0852,1.0837,1.0836,1.0814,1.0838,1.0829,1.0806,1.0776,1.082,1.0834,1.0839,1.0759,1.0758,1.0757,1.0756,0,0,1.1069,1.1023,1.1027,1.1015,1.0984,1.098,1.0981,1.0966,1.0964,1.0947,1.0948,1.0937,1.0916,1.0906,1.0882,1.0888,1.0926,1.0864,1.0863,1.0877,1.0952,1.097,1.0977,1.0908,1.0909,1.091,1.0954,0,1.1113,1.1112,1.108,1.1089,1.1084,1.1044,1.1046,1.1027,1.1007,1.1001,1.0979,1.0973,1.0944,1.0938,1.0943,1.092,1.094,1.0916,1.091,1.0911,1.0918,1.0984,1.1003,1.1046,1.0959,1.096,1.0961,0,1.1163,1.1148,1.1157,1.1126,1.1122,1.1124,1.1108,1.1102,1.1081,1.1066,1.1055,1.1028,1.1029,1.1,1.1001,1.0986,1.0982,1.097,1.0971,1.097,1.0939,1.0985,1.1058,1.1065,1.0969,1.0968,1.0967,0,1.1223,1.1206,1.1209,1.12,1.1163,1.1166,1.1151,1.1128,1.1122,1.1108,1.1103,1.109,1.1083,1.1074,1.1045,1.1026,1.105,1.1018,1.1038,1.1039,1.1045,1.1045,1.1119,1.1042,1.1042,1.1042,1.1042,0,1.1275,1.1282,1.1235,1.1237,1.1244,1.1208,1.1216,1.1197,1.1178,1.1176,1.1141,1.1141,1.1101,1.1097,1.1074,1.1079,1.1076,1.1065,1.1058,1.1068,1.107,1.1065,1.1061,1.1043,1.1043,1.1043,1.1042,0,1.1344,1.1313,1.1313,1.1279,1.1271,1.1278,1.1249,1.125,1.1227,1.1226,1.1224,1.1189,1.1182,1.1152,1.1138,1.1122,1.1135,1.1123,1.1142,1.1139,1.116,1.1159,1.1234,1.1243,1.116,1.116,1.1161,0,1.1379,1.1384,1.135,1.1346,1.1333,1.1327,1.132,1.1284,1.1278,1.1255,1.1259,1.1249,1.1239,1.123,1.1205,1.1194,1.1181,1.1208,1.1179,1.1189,1.1183,1.1183,1.1184,1.1215,1.1216,1.1217,1.1217,0,1.1446,1.143,1.1421,1.1406,1.1399,1.1386,1.1371,1.137,1.133,1.1326,1.1318,1.131,1.1296,1.1287,1.1272,1.1257,1.1232,1.1227,1.1231,1.1241,1.1252,1.1247,1.116,1.1225,1.1224,1.1224,1.1223,1.1223,1.1499,1.1502,1.1478,1.1469,1.1454,1.1441,1.1441,1.1419,1.1411,1.1396,1.1376,1.1371,1.135,1.1328,1.1316,1.1312,1.1297,1.1303,1.1305,1.1307,1.1312,1.1253,1.1309,1.1309,1.1308,1.1308,1.1308,0,1.1565,1.1548,1.154,1.152,1.1513,1.1488,1.1471,1.1467,1.1463,1.1446,1.1436,1.1428,1.1419,1.1393,1.1382,1.1384,1.1372,1.1383,1.1382,1.138,1.1325,1.1323,1.1393,1.1393,1.1393,1.1393,1.1393,1.1393,1.1598,1.1601,1.1583,1.1578,1.1562,1.1556,1.1548,1.1536,1.1523,1.1514,1.1507,1.1489,1.1469,1.1456,1.1448,1.144,1.1438,1.1453,1.1442,1.1392,1.1383,1.1376,1.1374,1.1452,1.1453,1.1496,1.1497,1.1497]},{"header":{"parameterUnit":"m.s-1","parameterCategory":1,"la1":30.2991,"la2":30.254,"lo1":-89.0895,"lo2":-89.0444,"dy":0.0017,"dx":0.0017,"nx":28,"ny":28,"refTime":"2023-04-06T21:00:00:Z","depth":0,"parameterNumber":3,"parameterNumberName":"V-component_of_WINDS"},"data":[0,0,0,0,0,0,0,0,0,0,0,0,0,0,0,0,0,0,0,0,0,0,0,0,0,0,0,0,0,0,0,0,0,0,0,0,0,0,0,0,0,0,0,0,0,0,0,0,0,0,0,0,0,0,0,0,0,0,1.0566,1.0568,0,1.0776,1.0778,1.078,1.0806,1.0804,1.0802,1.08,1.1018,1.1026,1.1033,0,0,0,0,0,0,0,0,0,0,0,0,0,1.0186,1.0193,1.0565,1.0568,1.0571,1.0775,1.0778,1.0781,1.0806,1.0804,1.0801,1.0799,1.1016,1.1025,1.1034,0,0,0,0,0,0,0,0,0,0,0,0,0,1.0369,1.0195,1.0565,1.0608,1.0614,1.0775,1.0778,1.0782,1.0807,1.0804,1.0801,1.0798,1.1013,1.1024,1.1035,1.1169,0,0,1.1071,1.1076,0,0,0,0,0,0,0,0,1.0359,1.0383,1.0599,1.0605,1.0612,1.0761,1.0724,1.0912,1.0808,1.0734,1.08,1.0796,1.0935,1.0953,1.1,1.1179,1.1188,1.1072,1.1079,1.1084,1.1087,0,0,0,0,0,0,0,1.0346,1.0374,1.0649,1.0602,1.061,1.0617,1.0639,1.076,1.0849,1.074,1.0742,1.0767,1.0938,1.0988,1.1005,1.1192,1.1071,1.1082,1.1089,1.1093,1.1489,1.1492,0,0,0,0,0,0,1.0325,1.0363,1.0642,1.0655,1.0475,1.0626,1.0651,1.0717,1.0848,1.0865,1.0769,1.0767,1.097,1.0991,1.1013,1.1177,1.1084,1.1095,1.1101,1.1486,1.149,1.1494,0,0,0,0,0,0,1.0317,1.035,1.0633,1.051,1.0546,1.0636,1.0709,1.0722,1.0772,1.087,1.0886,1.0804,1.0968,1.0996,1.1129,1.1185,1.11,1.111,1.1481,1.1487,1.1492,1.1507,0,0,0,0,0,0,1.0306,1.0347,1.0399,1.0511,1.0553,1.0747,1.0713,1.0729,1.0792,1.0791,1.0907,1.0923,1.0968,1.1112,1.1141,1.1199,1.1119,1.1477,1.1484,1.149,1.1502,1.1512,1.1521,0,0,0,0,0,1.0292,1.0395,1.0401,1.0435,1.062,1.075,1.0774,1.0823,1.0796,1.0849,1.0911,1.0919,1.1173,1.1125,1.1158,1.1221,1.1474,1.1482,1.149,1.1498,1.151,1.1521,0,0,0,0,0,0,1.0289,1.0411,1.0419,1.0561,1.0645,1.0754,1.0822,1.0835,1.0929,1.0924,1.0981,1.1007,1.1138,1.1192,1.1136,1.1356,1.1321,1.1336,1.1316,1.1329,1.1338,1.1323,1.1129,0,0,0,0,0,1.0305,1.04,1.0501,1.0617,1.0659,1.0733,1.0792,1.0821,1.0911,1.0947,1.1019,1.1106,1.1205,1.127,1.1366,1.1509,1.1534,1.1568,1.1578,1.1585,1.1598,1.1677,1.1693,1.152,1.152,1.152,0,0,1.0339,1.0417,1.0474,1.0619,1.0687,1.0784,1.0763,1.0867,1.094,1.0963,1.1093,1.1148,1.1249,1.1386,1.1451,1.1436,1.1651,1.1595,1.16,1.161,1.1686,1.1703,1.1717,1.1525,1.1524,1.1524,0,0,1.0451,1.0519,1.0623,1.0691,1.0794,1.0842,1.0866,1.0973,1.1011,1.1141,1.116,1.1247,1.1417,1.1487,1.1545,1.1679,1.169,1.1709,1.176,1.1836,1.1849,1.1862,1.191,1.1927,1.1721,1.1721,1.1721,0,1.048,1.0628,1.0675,1.0778,1.0841,1.0864,1.0969,1.1033,1.1162,1.1205,1.1186,1.1398,1.1467,1.1622,1.1654,1.17,1.173,1.1698,1.1843,1.1856,1.1869,1.1915,1.1933,1.1723,1.1723,1.1723,1.1723,0,1.0659,1.076,1.0832,1.0955,1.1025,1.1129,1.1191,1.1257,1.1279,1.1329,1.1461,1.1544,1.1658,1.1696,1.172,1.1853,1.1841,1.1832,1.1798,1.1886,1.1931,1.1949,1.1726,1.1725,1.1724,1.1724,0,0,1.0779,1.0924,1.0949,1.1005,1.1118,1.1198,1.1301,1.141,1.1466,1.1553,1.1642,1.1783,1.1774,1.184,1.1872,1.1938,1.2038,1.1921,1.1924,1.1941,1.219,1.2198,1.2218,1.2045,1.2048,1.2051,1.2182,0,1.0904,1.109,1.1134,1.1293,1.1387,1.1408,1.1498,1.1577,1.1626,1.1712,1.1766,1.1865,1.1846,1.1886,1.1952,1.2012,1.209,1.2003,1.2129,1.2133,1.2105,1.2241,1.225,1.237,1.22,1.2203,1.2205,0,1.1077,1.1167,1.1335,1.1434,1.1475,1.1555,1.1658,1.174,1.183,1.186,1.1931,1.1956,1.2064,1.2022,1.2172,1.2112,1.2165,1.2202,1.2208,1.2224,1.2176,1.2262,1.2409,1.2428,1.2233,1.2231,1.2229,0,1.1148,1.1311,1.1432,1.1479,1.1597,1.1653,1.1705,1.1791,1.1853,1.1943,1.1984,1.2084,1.214,1.2218,1.2268,1.2233,1.2414,1.2376,1.2443,1.2442,1.2483,1.248,1.2642,1.2513,1.2513,1.2513,1.2512,0,1.1285,1.1387,1.1465,1.154,1.1655,1.1703,1.1815,1.1868,1.1943,1.2029,1.2052,1.2131,1.2192,1.228,1.2319,1.2437,1.2462,1.249,1.25,1.2489,1.2486,1.2527,1.2521,1.2518,1.2517,1.2516,1.2515,0,1.1386,1.1442,1.1575,1.1675,1.1703,1.1783,1.1869,1.1942,1.1989,1.2096,1.2124,1.2199,1.2303,1.236,1.2491,1.2517,1.2649,1.2654,1.2619,1.2624,1.2687,1.2681,1.2884,1.2913,1.2763,1.2764,1.2765,0,1.147,1.1549,1.1657,1.1715,1.1768,1.1862,1.1924,1.1974,1.2039,1.2144,1.2205,1.231,1.2397,1.2561,1.2628,1.2727,1.2735,1.2799,1.2751,1.2737,1.2738,1.2733,1.2742,1.2809,1.281,1.2811,1.2812,0,1.1615,1.1638,1.1728,1.1827,1.1901,1.1982,1.2061,1.2108,1.217,1.2241,1.2347,1.2414,1.2546,1.265,1.2754,1.2808,1.2821,1.2826,1.2847,1.2839,1.2816,1.283,1.2644,1.2822,1.2821,1.2821,1.282,1.282,1.1711,1.1782,1.1868,1.1967,1.2032,1.2105,1.2178,1.2233,1.2323,1.2434,1.2457,1.2569,1.2654,1.2795,1.2851,1.2939,1.2927,1.2957,1.2965,1.2972,1.2975,1.2799,1.2958,1.2957,1.2957,1.2957,1.2957,0,1.1858,1.1914,1.2004,1.2114,1.2191,1.2194,1.2282,1.2346,1.2444,1.2522,1.2606,1.2727,1.2827,1.2899,1.3001,1.3058,1.3066,1.3083,1.3081,1.3093,1.298,1.2952,1.3075,1.3075,1.3075,1.3074,1.3074,1.3074,1.1944,1.2064,1.2096,1.2248,1.2303,1.2412,1.2462,1.2529,1.2592,1.2725,1.2808,1.2854,1.293,1.3037,1.3128,1.3147,1.3184,1.3201,1.322,1.3113,1.3101,1.3089,1.3064,1.3208,1.3208,1.3326,1.3327,1.3328]}]]